Lid_Strength_Index
-0 -0 -0 -0 0 0 0 -0 0 -0 -1 -1 -1 -1 -1 -1 -1 0 4 2 0 -3 -1 1 3 3 2 3 3 3 8 9 10 9 9 7 7 5 5 5 5 4 3 2 1
0 -0 -0 -0 0 0 0 -0 -0 -1 -1 -1 -1 -1 -1 -1 2 4 -1 -4 -4 -3 2 3 4 4 4 4 4 5 8 10 7 7 8 7 7 6 6 6 5 5 3 2 2
1 0 -0 -0 -0 0 0 0 0 -1 -0 -1 -1 -1 -1 -0 5 5 -4 -4 -3 -2 1 2 3 4 6 5 5 6 8 7 7 6 6 7 6 5 6 6 5 5 4 3 2
1 1 0 -0 -0 -0 0 0 0 -0 -0 -0 -1 -1 -1 1 9 3 -3 -3 -3 0 2 3 4 5 6 7 6 8 7 7 7 6 6 6 5 6 5 5 4 4 3 3 3
1 1 1 0 0 -0 -0 0 0 0 -0 0 -1 -1 1 5 6 1 -3 -2 -1 1 3 4 5 5 7 6 6 7 7 6 6 6 6 5 6 6 6 4 4 3 3 3 3
1 1 1 1 0 0 -0 0 0 1 0 -1 -1 -1 3 7 2 -0 -0 -0 1 2 3 4 5 5 6 6 7 6 6 6 6 6 6 7 6 6 5 4 4 4 4 3 3
1 1 1 1 1 0 0 -0 0 1 0 -1 -1 0 4 6 2 -1 0 2 1 2 4 3 4 5 5 7 6 6 8 7 6 7 7 6 7 7 5 4 4 4 4 3 3
-0 0 0 1 1 0 0 -0 -0 0 0 -1 -1 1 6 3 1 1 2 3 2 2 3 2 3 5 5 5 7 8 9 10 8 8 7 7 10 6 5 5 5 4 4 4 3
1 1 0 0 1 1 1 0 1 0 -0 -0 1 3 7 2 4 2 2 4 3 2 2 3 3 5 6 7 10 9 12 11 10 8 8 7 9 7 5 5 5 5 4 4 3
1 1 1 1 1 1 1 2 1 1 0 0 1 5 5 6 4 3 2 2 4 4 4 5 5 7 7 9 12 12 12 11 11 9 9 9 9 7 5 5 5 5 4 4 4
2 1 2 1 1 1 3 4 6 6 4 6 6 6 6 4 3 4 3 4 4 5 8 6 8 10 9 8 9 10 11 11 10 9 10 9 8 7 6 6 6 5 5 4 4
3 2 2 2 2 2 6 6 7 6 8 5 5 5 4 3 6 5 3 6 6 8 7 9 10 8 8 8 9 10 11 11 10 9 9 9 9 7 6 6 6 6 5 5 5
4 3 2 2 2 4 6 6 5 5 8 7 6 6 5 4 6 6 4 5 7 8 9 10 9 9 9 10 10 10 11 11 12 10 9 9 10 9 7 6 6 5 5 5 5
4 3 3 3 4 3 7 5 4 4 11 11 9 7 6 5 7 4 4 5 7 9 8 9 8 10 10 10 10 12 10 10 11 11 13 9 13 10 8 8 7 6 6 5 5
3 3 3 3 3 3 5 3 3 5 17 10 10 5 6 7 7 7 3 6 8 9 9 10 10 11 11 10 9 11 10 10 10 11 11 11 13 10 9 9 8 7 6 5 5
3 3 3 6 5 3 3 2 4 11 17 12 9 9 9 8 8 7 6 6 6 8 9 9 9 9 10 10 9 9 10 10 10 11 14 11 12 11 10 9 8 7 6 6 5
3 3 4 5 8 3 2 5 11 15 11 12 11 9 10 10 9 8 8 9 10 12 12 10 10 9 9 11 10 10 11 13 15 17 15 12 13 10 9 8 8 7 7 6 5
3 3 4 5 4 3 3 8 15 12 12 9 10 10 11 10 10 9 9 10 8 9 10 12 13 10 9 10 11 11 11 14 22 16 14 13 15 10 8 7 6 6 6 5 5
3 4 5 4 2 1 6 14 12 11 10 10 10 11 11 10 10 10 10 10 8 9 11 12 12 10 10 10 9 11 13 11 14 14 15 13 11 10 8 8 7 7 6 6 6
4 5 6 3 2 2 8 12 10 7 8 8 11 10 12 11 11 11 10 9 9 8 7 10 13 11 10 9 9 10 9 13 12 19 17 14 14 12 11 9 8 8 7 6 5
4 8 4 0 0 6 12 10 8 6 6 9 9 9 10 10 10 11 10 9 8 8 8 9 11 13 11 11 11 12 12 11 11 12 15 15 13 9 9 8 8 7 6 6 5
4 10 2 -0 7 7 10 8 6 7 6 8 8 9 9 9 11 11 11 9 8 8 11 8 10 13 13 11 10 9 11 11 14 14 13 13 13 9 8 8 6 7 6 5 5
6 6 2 2 10 10 7 8 7 7 7 8 9 7 9 10 12 10 9 9 8 9 9 10 11 14 14 12 11 12 11 10 11 12 13 14 12 9 8 8 6 7 6 5 5
5 9 6 4 5 8 9 9 10 7 7 7 8 7 9 11 10 10 11 11 9 8 5 7 10 11 13 12 10 13 12 11 11 13 13 13 12 11 9 8 7 6 6 5 5
5 7 6 10 8 7 7 8 10 10 7 7 9 8 10 12 12 11 11 11 10 8 8 9 12 11 11 11 11 11 12 12 12 11 13 11 12 10 9 8 7 6 6 6 6
7 7 5 7 6 7 7 9 9 8 8 9 11 10 8 11 10 11 13 12 11 9 10 9 11 11 12 12 12 12 12 11 11 11 11 11 12 8 8 7 7 6 6 6 6
3 2 5 7 7 9 9 8 8 7 6 6 9 9 9 8 6 7 9 10 10 12 11 10 11 13 13 12 12 14 12 12 11 10 10 12 10 9 9 8 7 6 6 6 5